INMARSAT 4-F2

Last updated on Fri Jul 11 2025 00:02:42 GMT+0000 (Coordinated Universal Time)

1 28899U 05044A 25191.44738687 -.00000251 00000+0 00000+0 0 9991 2 28899 4.6499 43.5318 0002210 72.6225 117.0003 1.00270543 72095
UTC large
Height (km)
Speed (km/s)
/
Latitude / Longitude
Inclination (degrees)
Orbital Period (minutes)
Azimuth
Elevation
Range (km)
Doppler Factor

Next 0 passes for location: London (51.5072 / 0.1276)

Sorry there are no passes over London.